Year,Month,Day,Hour,Minute,Value (Times are PST for temperature in C)
2016,11,14,00,00,9.50
2016,11,14,00,01,9.50
2016,11,14,00,02,9.50
2016,11,14,00,03,9.50
2016,11,14,00,04,9.50
2016,11,14,00,05,9.50
2016,11,14,00,06,9.40
2016,11,14,00,07,9.40
2016,11,14,00,08,9.40
2016,11,14,00,09,9.40
2016,11,14,00,10,9.40
2016,11,14,00,11,9.40
2016,11,14,00,12,9.40
2016,11,14,00,13,9.40
2016,11,14,00,14,9.40
2016,11,14,00,15,9.40
2016,11,14,00,16,9.40
2016,11,14,00,17,9.40
2016,11,14,00,18,9.40
2016,11,14,00,19,9.40
2016,11,14,00,20,9.40
2016,11,14,00,21,9.40
2016,11,14,00,22,9.40
2016,11,14,00,23,9.40
2016,11,14,00,24,9.40
2016,11,14,00,25,9.40
2016,11,14,00,26,9.40
2016,11,14,00,27,9.40
2016,11,14,00,28,9.30
2016,11,14,00,29,9.40
2016,11,14,00,30,9.30
2016,11,14,00,31,9.30
2016,11,14,00,32,9.30
2016,11,14,00,33,9.30
2016,11,14,00,34,9.30
2016,11,14,00,35,9.30
2016,11,14,00,36,9.30
2016,11,14,00,37,9.30
2016,11,14,00,38,9.20
2016,11,14,00,39,9.20
2016,11,14,00,40,9.20
2016,11,14,00,41,9.20
2016,11,14,00,42,9.20
2016,11,14,00,43,9.20
2016,11,14,00,44,9.20
2016,11,14,00,45,9.10
2016,11,14,00,46,9.10
2016,11,14,00,47,9.10
2016,11,14,00,48,9.10
2016,11,14,00,49,9.10
2016,11,14,00,50,9.00
2016,11,14,00,51,9.00
2016,11,14,00,52,9.00
2016,11,14,00,53,8.90
2016,11,14,00,54,8.90
2016,11,14,00,55,8.90
2016,11,14,00,56,8.90
2016,11,14,00,57,8.90
2016,11,14,00,58,8.90
2016,11,14,00,59,8.80
2016,11,14,01,00,8.80
2016,11,14,01,01,8.80
2016,11,14,01,02,8.80
2016,11,14,01,03,8.80
2016,11,14,01,04,8.80
2016,11,14,01,05,8.70
2016,11,14,01,06,8.70
2016,11,14,01,07,8.70
2016,11,14,01,08,8.70
2016,11,14,01,09,8.70
2016,11,14,01,10,8.70
2016,11,14,01,11,8.60
2016,11,14,01,12,8.60
2016,11,14,01,13,8.60
2016,11,14,01,14,8.60
2016,11,14,01,15,8.60
2016,11,14,01,16,8.60
2016,11,14,01,17,8.60
2016,11,14,01,18,8.60
2016,11,14,01,19,8.60
2016,11,14,01,20,8.60
2016,11,14,01,21,8.60
2016,11,14,01,22,8.50
2016,11,14,01,23,8.50
2016,11,14,01,24,8.50
2016,11,14,01,25,8.50
2016,11,14,01,26,8.50
2016,11,14,01,27,8.40
2016,11,14,01,28,8.40
2016,11,14,01,29,8.40
2016,11,14,01,30,8.40
2016,11,14,01,31,8.40
2016,11,14,01,32,8.30
2016,11,14,01,33,8.30
2016,11,14,01,34,8.30
2016,11,14,01,35,8.20
2016,11,14,01,36,8.20
2016,11,14,01,37,8.20
2016,11,14,01,38,8.20
2016,11,14,01,39,8.20
2016,11,14,01,40,8.10
2016,11,14,01,41,8.10
2016,11,14,01,42,8.10
2016,11,14,01,43,8.10
2016,11,14,01,44,8.10
2016,11,14,01,45,8.10
2016,11,14,01,46,8.00
2016,11,14,01,47,8.00
2016,11,14,01,48,8.00
2016,11,14,01,49,8.00
2016,11,14,01,50,8.00
2016,11,14,01,51,8.00
2016,11,14,01,52,8.00
2016,11,14,01,53,8.00
2016,11,14,01,54,7.90
2016,11,14,01,55,7.90
2016,11,14,01,56,7.90
2016,11,14,01,57,7.90
2016,11,14,01,58,7.90
2016,11,14,01,59,7.90
2016,11,14,02,00,7.90
2016,11,14,02,01,7.90
2016,11,14,02,02,7.80
2016,11,14,02,03,7.80
2016,11,14,02,04,7.80
2016,11,14,02,05,7.80
2016,11,14,02,06,7.80
2016,11,14,02,07,7.80
2016,11,14,02,08,7.70
2016,11,14,02,09,7.70
2016,11,14,02,10,7.70
2016,11,14,02,11,7.70
2016,11,14,02,12,7.60
2016,11,14,02,13,7.60
2016,11,14,02,14,7.60
2016,11,14,02,15,7.60
2016,11,14,02,16,7.50
2016,11,14,02,17,7.50
2016,11,14,02,18,7.50
2016,11,14,02,19,7.40
2016,11,14,02,20,7.40
2016,11,14,02,21,7.40
2016,11,14,02,22,7.30
2016,11,14,02,23,7.30
2016,11,14,02,24,7.30
2016,11,14,02,25,7.30
2016,11,14,02,26,7.20
2016,11,14,02,27,7.20
2016,11,14,02,28,7.20
2016,11,14,02,29,7.20
2016,11,14,02,30,7.20
2016,11,14,02,31,7.20
2016,11,14,02,32,7.20
2016,11,14,02,33,7.10
2016,11,14,02,34,7.10
2016,11,14,02,35,7.10
2016,11,14,02,36,7.10
2016,11,14,02,37,7.10
2016,11,14,02,38,7.10
2016,11,14,02,39,7.00
2016,11,14,02,40,7.00
2016,11,14,02,41,7.00
2016,11,14,02,42,7.00
2016,11,14,02,43,7.00
2016,11,14,02,44,7.00
2016,11,14,02,45,7.00
2016,11,14,02,46,7.00
2016,11,14,02,47,7.00
2016,11,14,02,48,7.00
2016,11,14,02,49,7.00
2016,11,14,02,50,6.90
2016,11,14,02,51,6.90
2016,11,14,02,52,6.90
2016,11,14,02,53,6.90
2016,11,14,02,54,6.90
2016,11,14,02,55,6.90
2016,11,14,02,56,6.90
2016,11,14,02,57,6.90
2016,11,14,02,58,6.90
2016,11,14,02,59,6.90
2016,11,14,03,00,6.90
2016,11,14,03,01,6.90
2016,11,14,03,02,6.90
2016,11,14,03,03,6.90
2016,11,14,03,04,6.90
2016,11,14,03,05,6.90
2016,11,14,03,06,6.90
2016,11,14,03,07,6.90
2016,11,14,03,08,6.90
2016,11,14,03,09,6.90
2016,11,14,03,10,6.90
2016,11,14,03,11,6.80
2016,11,14,03,12,6.80
2016,11,14,03,13,6.80
2016,11,14,03,14,6.90
2016,11,14,03,15,6.90
2016,11,14,03,16,6.90
2016,11,14,03,17,6.90
2016,11,14,03,18,6.90
2016,11,14,03,19,6.90
2016,11,14,03,20,6.90
2016,11,14,03,21,6.90
2016,11,14,03,22,6.90
2016,11,14,03,23,6.90
2016,11,14,03,24,6.80
2016,11,14,03,25,6.90
2016,11,14,03,26,6.90
2016,11,14,03,27,6.90
2016,11,14,03,28,6.90
2016,11,14,03,29,6.90
2016,11,14,03,30,6.90
2016,11,14,03,31,6.90
2016,11,14,03,32,6.90
2016,11,14,03,33,7.00
2016,11,14,03,34,7.00
2016,11,14,03,35,7.00
2016,11,14,03,36,7.00
2016,11,14,03,37,7.00
2016,11,14,03,38,7.00
2016,11,14,03,39,7.00
2016,11,14,03,40,7.00
2016,11,14,03,41,7.00
2016,11,14,03,42,7.00
2016,11,14,03,43,7.00
2016,11,14,03,44,6.90
2016,11,14,03,45,6.90
2016,11,14,03,46,6.90
2016,11,14,03,47,6.90
2016,11,14,03,48,6.90
2016,11,14,03,49,6.80
2016,11,14,03,50,6.80
2016,11,14,03,51,6.80
2016,11,14,03,52,6.80
2016,11,14,03,53,6.80
2016,11,14,03,54,6.80
2016,11,14,03,55,6.70
2016,11,14,03,56,6.70
2016,11,14,03,57,6.70
2016,11,14,03,58,6.70
2016,11,14,03,59,6.70
2016,11,14,04,00,6.70
2016,11,14,04,01,6.70
2016,11,14,04,02,6.70
2016,11,14,04,03,6.70
2016,11,14,04,04,6.70
2016,11,14,04,05,6.70
2016,11,14,04,06,6.70
2016,11,14,04,07,6.70
2016,11,14,04,08,6.70
2016,11,14,04,09,6.70
2016,11,14,04,10,6.70
2016,11,14,04,11,6.60
2016,11,14,04,12,6.60
2016,11,14,04,13,6.60
2016,11,14,04,14,6.60
2016,11,14,04,15,6.50
2016,11,14,04,16,6.50
2016,11,14,04,17,6.40
2016,11,14,04,18,6.40
2016,11,14,04,19,6.40
2016,11,14,04,20,6.40
2016,11,14,04,21,6.40
2016,11,14,04,22,6.30
2016,11,14,04,23,6.30
2016,11,14,04,24,6.30
2016,11,14,04,25,6.30
2016,11,14,04,26,6.30
2016,11,14,04,27,6.30
2016,11,14,04,28,6.30
2016,11,14,04,29,6.20
2016,11,14,04,30,6.20
2016,11,14,04,31,6.20
2016,11,14,04,32,6.20
2016,11,14,04,33,6.20
2016,11,14,04,34,6.20
2016,11,14,04,35,6.20
2016,11,14,04,36,6.20
2016,11,14,04,37,6.10
2016,11,14,04,38,6.10
2016,11,14,04,39,6.10
2016,11,14,04,40,6.10
2016,11,14,04,41,6.10
2016,11,14,04,42,6.10
2016,11,14,04,43,6.10
2016,11,14,04,44,6.10
2016,11,14,04,45,6.10
2016,11,14,04,46,6.00
2016,11,14,04,47,6.00
2016,11,14,04,48,6.00
2016,11,14,04,49,6.00
2016,11,14,04,50,6.00
2016,11,14,04,51,5.90
2016,11,14,04,52,5.90
2016,11,14,04,53,5.90
2016,11,14,04,54,5.90
2016,11,14,04,55,5.90
2016,11,14,04,56,5.90
2016,11,14,04,57,5.90
2016,11,14,04,58,5.90
2016,11,14,04,59,5.90
2016,11,14,05,00,5.90
2016,11,14,05,01,5.90
2016,11,14,05,02,5.80
2016,11,14,05,03,5.80
2016,11,14,05,04,5.80
2016,11,14,05,05,5.80
2016,11,14,05,06,5.80
2016,11,14,05,07,5.80
2016,11,14,05,08,5.70
2016,11,14,05,09,5.70
2016,11,14,05,10,5.70
2016,11,14,05,11,5.70
2016,11,14,05,12,5.70
2016,11,14,05,13,5.70
2016,11,14,05,14,5.70
2016,11,14,05,15,5.70
2016,11,14,05,16,5.70
2016,11,14,05,17,5.70
2016,11,14,05,18,5.70
2016,11,14,05,19,5.70
2016,11,14,05,20,5.70
2016,11,14,05,21,5.70
2016,11,14,05,22,5.70
2016,11,14,05,23,5.70
2016,11,14,05,24,5.70
2016,11,14,05,25,5.70
2016,11,14,05,26,5.70
2016,11,14,05,27,5.70
2016,11,14,05,28,5.70
2016,11,14,05,29,5.70
2016,11,14,05,30,5.70
2016,11,14,05,31,5.70
2016,11,14,05,32,5.70
2016,11,14,05,33,5.70
2016,11,14,05,34,5.60
2016,11,14,05,35,5.60
2016,11,14,05,36,5.60
2016,11,14,05,37,5.60
2016,11,14,05,38,5.60
2016,11,14,05,39,5.60
2016,11,14,05,40,5.60
2016,11,14,05,41,5.60
2016,11,14,05,42,5.60
2016,11,14,05,43,5.60
2016,11,14,05,44,5.60
2016,11,14,05,45,5.60
2016,11,14,05,46,5.60
2016,11,14,05,47,5.60
2016,11,14,05,48,5.60
2016,11,14,05,49,5.60
2016,11,14,05,50,5.60
2016,11,14,05,51,5.60
2016,11,14,05,52,5.60
2016,11,14,05,53,5.60
2016,11,14,05,54,5.50
2016,11,14,05,55,5.50
2016,11,14,05,56,5.50
2016,11,14,05,57,5.50
2016,11,14,05,58,5.50
2016,11,14,05,59,5.50
2016,11,14,06,00,5.50
2016,11,14,06,01,5.50
2016,11,14,06,02,5.50
2016,11,14,06,03,5.50
2016,11,14,06,04,5.50
2016,11,14,06,05,5.50
2016,11,14,06,06,5.50
2016,11,14,06,07,5.50
2016,11,14,06,08,5.50
2016,11,14,06,09,5.50
2016,11,14,06,10,5.50
2016,11,14,06,11,5.50
2016,11,14,06,12,5.60
2016,11,14,06,13,5.60
2016,11,14,06,14,5.60
2016,11,14,06,15,5.60
2016,11,14,06,16,5.60
2016,11,14,06,17,5.50
2016,11,14,06,18,5.50
2016,11,14,06,19,5.50
2016,11,14,06,20,5.50
2016,11,14,06,21,5.50
2016,11,14,06,22,5.50
2016,11,14,06,23,5.50
2016,11,14,06,24,5.50
2016,11,14,06,25,5.60
2016,11,14,06,26,5.60
2016,11,14,06,27,5.60
2016,11,14,06,28,5.60
2016,11,14,06,29,5.60
2016,11,14,06,30,5.60
2016,11,14,06,31,5.60
2016,11,14,06,32,5.60
2016,11,14,06,33,5.60
2016,11,14,06,34,5.60
2016,11,14,06,35,5.60
2016,11,14,06,36,5.60
2016,11,14,06,37,5.60
2016,11,14,06,38,5.60
2016,11,14,06,39,5.70
2016,11,14,06,40,5.70
2016,11,14,06,41,5.80
2016,11,14,06,42,5.80
2016,11,14,06,43,5.80
2016,11,14,06,44,5.80
2016,11,14,06,45,5.80
2016,11,14,06,46,5.80
2016,11,14,06,47,5.90
2016,11,14,06,48,5.90
2016,11,14,06,49,5.90
2016,11,14,06,50,6.00
2016,11,14,06,51,6.00
2016,11,14,06,52,6.10
2016,11,14,06,53,6.10
2016,11,14,06,54,6.10
2016,11,14,06,55,6.10
2016,11,14,06,56,6.10
2016,11,14,06,57,6.10
2016,11,14,06,58,6.10
2016,11,14,06,59,6.10
2016,11,14,07,00,6.10
2016,11,14,07,01,6.10
2016,11,14,07,02,6.10
2016,11,14,07,03,6.10
2016,11,14,07,04,6.10
2016,11,14,07,05,6.10
2016,11,14,07,06,6.10
2016,11,14,07,07,6.10
2016,11,14,07,08,6.10
2016,11,14,07,09,6.10
2016,11,14,07,10,6.20
2016,11,14,07,11,6.20
2016,11,14,07,12,6.20
2016,11,14,07,13,6.20
2016,11,14,07,14,6.20
2016,11,14,07,15,6.20
2016,11,14,10,41,11.30
2016,11,14,10,42,11.30
2016,11,14,10,43,11.30
2016,11,14,10,44,11.40
2016,11,14,10,45,11.40
2016,11,14,10,46,11.50
2016,11,14,10,47,11.50
2016,11,14,10,48,11.50
2016,11,14,10,49,11.50
2016,11,14,10,50,11.50
2016,11,14,10,51,11.60
2016,11,14,10,52,11.60
2016,11,14,10,53,11.60
2016,11,14,10,54,11.60
2016,11,14,10,55,11.60
2016,11,14,10,56,11.60
2016,11,14,10,57,11.60
2016,11,14,10,58,11.60
2016,11,14,10,59,11.60
2016,11,14,11,00,11.60
2016,11,14,11,01,11.60
2016,11,14,11,02,11.60
2016,11,14,11,03,11.60
2016,11,14,11,04,11.70
2016,11,14,11,05,11.70
2016,11,14,11,06,11.70
2016,11,14,11,07,11.80
2016,11,14,11,08,11.80
2016,11,14,11,09,11.90
2016,11,14,11,10,11.90
2016,11,14,11,11,12.00
2016,11,14,11,12,12.00
2016,11,14,11,13,12.10
2016,11,14,11,14,12.20
2016,11,14,11,15,12.20
2016,11,14,11,16,12.30
2016,11,14,11,17,12.30
2016,11,14,11,18,12.30
2016,11,14,11,19,12.40
2016,11,14,11,20,12.40
2016,11,14,11,21,12.50
2016,11,14,11,22,12.50
2016,11,14,11,23,12.60
2016,11,14,11,24,12.70
2016,11,14,11,25,12.70
2016,11,14,11,26,12.80
2016,11,14,11,27,12.90
2016,11,14,11,28,12.90
2016,11,14,11,29,13.00
2016,11,14,11,30,13.10
2016,11,14,11,31,13.00
2016,11,14,11,32,12.90
2016,11,14,11,33,13.00
2016,11,14,11,34,12.90
2016,11,14,11,35,12.90
2016,11,14,11,36,12.90
2016,11,14,11,37,12.90
2016,11,14,11,38,12.90
2016,11,14,11,39,12.90
2016,11,14,11,40,12.90
2016,11,14,11,41,12.90
2016,11,14,11,42,12.90
2016,11,14,11,43,12.90
2016,11,14,11,44,12.90
2016,11,14,11,45,13.00
2016,11,14,11,46,13.10
2016,11,14,11,47,13.10
2016,11,14,11,48,13.10
2016,11,14,11,49,13.20
2016,11,14,11,50,13.30
2016,11,14,11,51,13.40
2016,11,14,11,52,13.50
2016,11,14,11,53,13.50
2016,11,14,11,54,13.60
2016,11,14,11,55,13.60
2016,11,14,11,56,13.60
2016,11,14,11,57,13.60
2016,11,14,11,58,13.60
2016,11,14,11,59,13.60
2016,11,14,12,00,13.70
2016,11,14,12,01,13.70
2016,11,14,12,02,13.70
2016,11,14,12,03,13.70
2016,11,14,12,04,13.70
2016,11,14,12,05,13.80
2016,11,14,12,06,13.80
2016,11,14,12,07,13.90
2016,11,14,12,08,13.90
2016,11,14,12,09,13.90
2016,11,14,12,10,14.00
2016,11,14,12,11,14.10
2016,11,14,12,12,14.10
2016,11,14,12,13,14.10
2016,11,14,12,14,14.10
2016,11,14,12,15,14.10
2016,11,14,12,16,14.10
2016,11,14,12,17,14.00
2016,11,14,12,18,13.90
2016,11,14,12,19,13.90
2016,11,14,12,20,13.80
2016,11,14,12,21,13.80
2016,11,14,12,22,13.80
2016,11,14,12,23,13.80
2016,11,14,12,24,13.80
2016,11,14,12,25,13.70
2016,11,14,12,26,13.70
2016,11,14,12,27,13.60
2016,11,14,12,28,13.60
2016,11,14,12,29,13.60
2016,11,14,12,30,13.60
2016,11,14,12,31,13.50
2016,11,14,12,32,13.50
2016,11,14,12,33,13.30
2016,11,14,12,34,13.20
2016,11,14,12,35,13.00
2016,11,14,12,36,12.90
2016,11,14,12,37,12.70
2016,11,14,12,38,12.50
2016,11,14,12,39,12.40
2016,11,14,12,40,12.30
2016,11,14,12,41,12.30
2016,11,14,12,42,12.30
2016,11,14,12,43,12.20
2016,11,14,12,44,12.20
2016,11,14,12,45,12.10
2016,11,14,12,46,12.10
2016,11,14,12,47,12.10
2016,11,14,12,48,12.00
2016,11,14,12,49,12.00
2016,11,14,12,50,11.90
2016,11,14,12,51,11.90
2016,11,14,12,52,11.90
2016,11,14,12,53,11.90
2016,11,14,12,54,11.90
2016,11,14,12,55,11.90
2016,11,14,12,56,11.90
2016,11,14,12,57,11.90
2016,11,14,12,58,11.80
2016,11,14,12,59,11.70
2016,11,14,13,00,11.60
2016,11,14,13,01,11.60
2016,11,14,13,02,11.60
2016,11,14,13,03,11.60
2016,11,14,13,04,11.70
2016,11,14,13,05,11.60
2016,11,14,13,06,11.60
2016,11,14,13,07,11.60
2016,11,14,13,08,11.60
2016,11,14,13,09,11.60
2016,11,14,13,10,11.60
2016,11,14,13,11,11.60
2016,11,14,13,12,11.60
2016,11,14,13,13,11.60
2016,11,14,13,14,11.60
2016,11,14,13,15,11.60
2016,11,14,13,16,11.60
2016,11,14,13,17,11.60
2016,11,14,13,18,11.70
2016,11,14,13,19,11.70
2016,11,14,13,20,11.70
2016,11,14,13,21,11.70
2016,11,14,13,22,11.70
2016,11,14,13,23,11.60
2016,11,14,13,24,11.60
2016,11,14,13,25,11.60
2016,11,14,13,26,11.60
2016,11,14,13,27,11.60
2016,11,14,13,28,11.60
2016,11,14,13,29,11.60
2016,11,14,13,30,11.60
2016,11,14,13,31,11.60
2016,11,14,13,32,11.60
2016,11,14,13,33,11.60
2016,11,14,13,34,11.60
2016,11,14,13,35,11.50
2016,11,14,13,36,11.50
2016,11,14,13,37,11.50
2016,11,14,13,38,11.50
2016,11,14,13,39,11.50
2016,11,14,13,40,11.50
2016,11,14,13,41,11.50
2016,11,14,13,42,11.50
2016,11,14,13,43,11.50
2016,11,14,13,44,11.50
2016,11,14,13,45,11.40
2016,11,14,13,46,11.50
2016,11,14,13,47,11.50
2016,11,14,13,48,11.50
2016,11,14,13,49,11.50
2016,11,14,13,50,11.50
2016,11,14,13,51,11.50
2016,11,14,13,52,11.60
2016,11,14,13,53,11.60
2016,11,14,13,54,11.60
2016,11,14,13,55,11.70
2016,11,14,13,56,11.70
2016,11,14,13,57,11.70
2016,11,14,13,58,11.70
2016,11,14,13,59,11.70
2016,11,14,14,00,11.70
2016,11,14,14,01,11.70
2016,11,14,14,02,11.70
2016,11,14,14,03,11.70
2016,11,14,14,04,11.70
2016,11,14,14,05,11.70
2016,11,14,14,06,11.70
2016,11,14,14,07,11.70
2016,11,14,14,08,11.70
2016,11,14,14,09,11.70
2016,11,14,14,10,11.70
2016,11,14,14,11,11.70
2016,11,14,14,12,11.70
2016,11,14,14,13,11.70
2016,11,14,14,14,11.70
2016,11,14,14,15,11.70
2016,11,14,14,16,11.60
2016,11,14,14,17,11.60
2016,11,14,14,18,11.60
2016,11,14,14,19,11.60
2016,11,14,14,20,11.60
2016,11,14,14,21,11.60
2016,11,14,14,22,11.60
2016,11,14,14,23,11.70
2016,11,14,14,24,11.70
2016,11,14,14,25,11.70
2016,11,14,14,26,11.70
2016,11,14,14,27,11.70
2016,11,14,14,28,11.70
2016,11,14,14,29,11.60
2016,11,14,14,30,11.60
2016,11,14,14,31,11.60
2016,11,14,14,32,11.60
2016,11,14,14,33,11.50
2016,11,14,14,34,11.50
2016,11,14,14,35,11.50
2016,11,14,14,36,11.50
2016,11,14,14,37,11.50
2016,11,14,14,38,11.50
2016,11,14,14,39,11.50
2016,11,14,14,40,11.50
2016,11,14,14,41,11.40
2016,11,14,14,42,11.40
2016,11,14,14,43,11.40
2016,11,14,14,44,11.40
2016,11,14,14,45,11.40
2016,11,14,14,46,11.40
2016,11,14,14,47,11.40
2016,11,14,14,48,11.40
2016,11,14,14,49,11.40
2016,11,14,14,50,11.40
2016,11,14,14,51,11.40
2016,11,14,14,52,11.40
2016,11,14,14,53,11.40
2016,11,14,14,54,11.40
2016,11,14,14,55,11.40
2016,11,14,14,56,11.40
2016,11,14,14,57,11.40
2016,11,14,14,58,11.40
2016,11,14,14,59,11.40
2016,11,14,15,00,11.40
2016,11,14,15,01,11.40
2016,11,14,15,02,11.40
2016,11,14,15,03,11.30
2016,11,14,15,04,11.30
2016,11,14,15,05,11.30
2016,11,14,15,06,11.30
2016,11,14,15,07,11.30
2016,11,14,15,08,11.30
2016,11,14,15,09,11.30
2016,11,14,15,10,11.30
2016,11,14,15,11,11.30
2016,11,14,15,12,11.30
2016,11,14,15,13,11.20
2016,11,14,15,14,11.20
2016,11,14,15,15,11.20
2016,11,14,15,16,11.20
2016,11,14,15,17,11.20
2016,11,14,15,18,11.20
2016,11,14,15,19,11.20
2016,11,14,15,20,11.20
2016,11,14,15,21,11.20
2016,11,14,15,22,11.20
2016,11,14,15,23,11.20
2016,11,14,15,24,11.20
2016,11,14,15,25,11.20
2016,11,14,15,26,11.20
2016,11,14,15,27,11.20
2016,11,14,15,28,11.20
2016,11,14,15,29,11.20
2016,11,14,15,30,11.20
2016,11,14,15,31,11.20
2016,11,14,15,32,11.20
2016,11,14,15,33,11.20
2016,11,14,15,34,11.20
2016,11,14,15,35,11.20
2016,11,14,15,36,11.20
2016,11,14,15,37,11.20
2016,11,14,15,38,11.20
2016,11,14,15,39,11.20
2016,11,14,15,40,11.20
2016,11,14,15,41,11.20
2016,11,14,15,42,11.20
2016,11,14,15,43,11.20
2016,11,14,15,44,11.20
2016,11,14,15,45,11.20
2016,11,14,15,46,11.20
2016,11,14,15,47,11.20
2016,11,14,15,48,11.20
2016,11,14,15,49,11.20
2016,11,14,15,50,11.20
2016,11,14,15,51,11.20
2016,11,14,15,52,11.20
2016,11,14,15,53,11.20
2016,11,14,15,54,11.20
2016,11,14,15,55,11.20
2016,11,14,15,56,11.20
2016,11,14,15,57,11.20
2016,11,14,15,58,11.20
2016,11,14,15,59,11.20
2016,11,14,16,00,11.10
2016,11,14,16,01,11.10
2016,11,14,16,02,11.10
2016,11,14,16,03,11.10
2016,11,14,16,04,11.10
2016,11,14,16,05,11.10
2016,11,14,16,06,11.10
2016,11,14,16,07,11.10
2016,11,14,16,08,11.10
2016,11,14,16,09,11.10
2016,11,14,16,10,11.10
2016,11,14,16,11,11.10
2016,11,14,16,12,11.10
2016,11,14,16,13,11.10
2016,11,14,16,14,11.10
2016,11,14,16,15,11.10
2016,11,14,16,16,11.10
2016,11,14,16,17,11.10
2016,11,14,16,18,11.00
2016,11,14,16,19,11.00
2016,11,14,16,20,11.00
2016,11,14,16,21,11.00
2016,11,14,16,22,10.90
2016,11,14,16,23,10.90
2016,11,14,16,24,10.90
2016,11,14,16,25,10.90
2016,11,14,16,26,10.80
2016,11,14,16,27,10.80
2016,11,14,16,28,10.80
2016,11,14,16,29,10.80
2016,11,14,16,30,10.80
2016,11,14,16,31,10.80
2016,11,14,16,32,10.80
2016,11,14,16,33,10.80
2016,11,14,16,34,10.70
2016,11,14,16,35,10.70
2016,11,14,16,36,10.70
2016,11,14,16,37,10.70
2016,11,14,16,38,10.70
2016,11,14,16,39,10.70
2016,11,14,16,40,10.60
2016,11,14,16,41,10.60
2016,11,14,16,42,10.60
2016,11,14,16,43,10.60
2016,11,14,16,44,10.60
2016,11,14,16,45,10.50
2016,11,14,16,46,10.50
2016,11,14,16,47,10.50
2016,11,14,16,48,10.40
2016,11,14,16,49,10.40
2016,11,14,16,50,10.40
2016,11,14,16,51,10.40
2016,11,14,16,52,10.40
2016,11,14,16,53,10.30
2016,11,14,16,54,10.30
2016,11,14,16,55,10.30
2016,11,14,16,56,10.30
2016,11,14,16,57,10.30
2016,11,14,16,58,10.30
2016,11,14,16,59,10.30
2016,11,14,17,00,10.30
2016,11,14,17,01,10.20
2016,11,14,17,02,10.20
2016,11,14,17,03,10.20
2016,11,14,17,04,10.20
2016,11,14,17,05,10.20
2016,11,14,17,06,10.20
2016,11,14,17,07,10.20
2016,11,14,17,08,10.10
2016,11,14,17,09,10.10
2016,11,14,17,10,10.10
2016,11,14,17,11,10.10
2016,11,14,17,12,10.10
2016,11,14,17,13,10.00
2016,11,14,17,14,10.00
2016,11,14,17,15,10.00
2016,11,14,17,16,9.90
2016,11,14,17,17,9.90
2016,11,14,17,18,9.90
2016,11,14,17,19,9.90
2016,11,14,17,20,9.90
2016,11,14,17,21,9.90
2016,11,14,17,22,9.90
2016,11,14,17,23,9.80
2016,11,14,17,24,9.80
2016,11,14,17,25,9.80
2016,11,14,17,26,9.80
2016,11,14,17,27,9.80
2016,11,14,17,28,9.80
2016,11,14,17,29,9.80
2016,11,14,17,30,9.80
2016,11,14,17,31,9.80
2016,11,14,17,32,9.80
2016,11,14,17,33,9.70
2016,11,14,17,34,9.70
2016,11,14,17,35,9.70
2016,11,14,17,36,9.70
2016,11,14,17,37,9.70
2016,11,14,17,38,9.70
2016,11,14,17,39,9.70
2016,11,14,17,40,9.70
2016,11,14,17,41,9.70
2016,11,14,17,42,9.60
2016,11,14,17,43,9.60
2016,11,14,17,44,9.60
2016,11,14,17,45,9.60
2016,11,14,17,46,9.60
2016,11,14,17,47,9.60
2016,11,14,17,48,9.60
2016,11,14,17,49,9.60
2016,11,14,17,50,9.60
2016,11,14,17,51,9.50
2016,11,14,17,52,9.50
2016,11,14,17,53,9.50
2016,11,14,17,54,9.50
2016,11,14,17,55,9.40
2016,11,14,17,56,9.40
2016,11,14,17,57,9.40
2016,11,14,17,58,9.40
2016,11,14,17,59,9.40
2016,11,14,18,00,9.40
2016,11,14,18,01,9.40
2016,11,14,18,02,9.30
2016,11,14,18,03,9.30
2016,11,14,18,04,9.30
2016,11,14,18,05,9.30
2016,11,14,18,06,9.30
2016,11,14,18,07,9.30
2016,11,14,18,08,9.30
2016,11,14,18,09,9.30
2016,11,14,18,10,9.30
2016,11,14,18,11,9.30
2016,11,14,18,12,9.30
2016,11,14,18,13,9.30
2016,11,14,18,14,9.30
2016,11,14,18,15,9.30
2016,11,14,18,16,9.30
2016,11,14,18,17,9.20
2016,11,14,18,18,9.20
2016,11,14,18,19,9.20
2016,11,14,18,20,9.20
2016,11,14,18,21,9.20
2016,11,14,18,22,9.20
2016,11,14,18,23,9.20
2016,11,14,18,24,9.20
2016,11,14,18,25,9.10
2016,11,14,18,26,9.10
2016,11,14,18,27,9.10
2016,11,14,18,28,9.10
2016,11,14,18,29,9.10
2016,11,14,18,30,9.10
2016,11,14,18,31,9.10
2016,11,14,18,32,9.10
2016,11,14,18,33,9.10
2016,11,14,18,34,9.10
2016,11,14,18,35,9.10
2016,11,14,18,36,9.10
2016,11,14,18,37,9.10
2016,11,14,18,38,9.10
2016,11,14,18,39,9.00
2016,11,14,18,40,9.00
2016,11,14,18,41,9.00
2016,11,14,18,42,9.00
2016,11,14,18,43,9.00
2016,11,14,18,44,9.00
2016,11,14,18,45,8.90
2016,11,14,18,46,8.90
2016,11,14,18,47,8.90
2016,11,14,18,48,8.90
2016,11,14,18,49,8.90
2016,11,14,18,50,8.90
2016,11,14,18,51,8.90
2016,11,14,18,52,8.90
2016,11,14,18,53,8.90
2016,11,14,18,54,8.90
2016,11,14,18,55,8.90
2016,11,14,18,56,8.90
2016,11,14,18,57,8.90
2016,11,14,18,58,8.90
2016,11,14,18,59,8.90
2016,11,14,19,00,8.90
2016,11,14,19,01,8.90
2016,11,14,19,02,8.90
2016,11,14,19,03,8.90
2016,11,14,19,04,8.80
2016,11,14,19,05,8.80
2016,11,14,19,06,8.80
2016,11,14,19,07,8.80
2016,11,14,19,08,8.80
2016,11,14,19,09,8.80
2016,11,14,19,10,8.80
2016,11,14,19,11,8.90
2016,11,14,19,12,8.80
2016,11,14,19,13,8.90
2016,11,14,19,14,8.80
2016,11,14,19,15,8.80
2016,11,14,19,16,8.80
2016,11,14,19,17,8.80
2016,11,14,19,18,8.80
2016,11,14,19,19,8.80
2016,11,14,19,20,8.80
2016,11,14,19,21,8.80
2016,11,14,19,22,8.80
2016,11,14,19,23,8.80
2016,11,14,19,24,8.80
2016,11,14,19,25,8.80
2016,11,14,19,26,8.70
2016,11,14,19,27,8.70
2016,11,14,19,28,8.70
2016,11,14,19,29,8.70
2016,11,14,19,30,8.70
2016,11,14,19,31,8.70
2016,11,14,19,32,8.70
2016,11,14,19,33,8.70
2016,11,14,19,34,8.70
2016,11,14,19,35,8.70
2016,11,14,19,36,8.70
2016,11,14,19,37,8.70
2016,11,14,19,38,8.70
2016,11,14,19,39,8.70
2016,11,14,19,40,8.70
2016,11,14,19,41,8.60
2016,11,14,19,42,8.60
2016,11,14,19,43,8.60
2016,11,14,19,44,8.60
2016,11,14,19,45,8.60
2016,11,14,19,46,8.60
2016,11,14,19,47,8.60
2016,11,14,19,48,8.60
2016,11,14,19,49,8.60
2016,11,14,19,50,8.60
2016,11,14,19,51,8.60
2016,11,14,19,52,8.60
2016,11,14,19,53,8.60
2016,11,14,19,54,8.60
2016,11,14,19,55,8.60
2016,11,14,19,56,8.60
2016,11,14,19,57,8.60
2016,11,14,19,58,8.60
2016,11,14,19,59,8.60
2016,11,14,20,00,8.60
2016,11,14,20,01,8.60
2016,11,14,20,02,8.60
2016,11,14,20,03,8.50
2016,11,14,20,04,8.60
2016,11,14,20,05,8.50
2016,11,14,20,06,8.50
2016,11,14,20,07,8.50
2016,11,14,20,08,8.50
2016,11,14,20,09,8.50
2016,11,14,20,10,8.50
2016,11,14,20,11,8.50
2016,11,14,20,12,8.50
2016,11,14,20,13,8.50
2016,11,14,20,14,8.50
2016,11,14,20,15,8.50
2016,11,14,20,16,8.50
2016,11,14,20,17,8.50
2016,11,14,20,18,8.50
2016,11,14,20,19,8.50
2016,11,14,20,20,8.50
2016,11,14,20,21,8.50
2016,11,14,20,22,8.50
2016,11,14,20,23,8.50
2016,11,14,20,24,8.50
2016,11,14,20,25,8.50
2016,11,14,20,26,8.50
2016,11,14,20,27,8.50
2016,11,14,20,28,8.50
2016,11,14,20,29,8.50
2016,11,14,20,30,8.50
2016,11,14,20,31,8.50
2016,11,14,20,32,8.50
2016,11,14,20,33,8.50
2016,11,14,20,34,8.50
2016,11,14,20,35,8.50
2016,11,14,20,36,8.40
2016,11,14,20,37,8.40
2016,11,14,20,38,8.40
2016,11,14,20,39,8.40
2016,11,14,20,40,8.40
2016,11,14,20,41,8.40
2016,11,14,20,42,8.40
2016,11,14,20,43,8.40
2016,11,14,20,44,8.40
2016,11,14,20,45,8.40
2016,11,14,20,46,8.40
2016,11,14,20,47,8.40
2016,11,14,20,48,8.40
2016,11,14,20,49,8.40
2016,11,14,20,50,8.40
2016,11,14,20,51,8.40
2016,11,14,20,52,8.40
2016,11,14,20,53,8.40
2016,11,14,20,54,8.40
2016,11,14,20,55,8.40
2016,11,14,20,56,8.30
2016,11,14,20,57,8.30
2016,11,14,20,58,8.30
2016,11,14,20,59,8.30
2016,11,14,21,00,8.30
2016,11,14,21,01,8.30
2016,11,14,21,02,8.30
2016,11,14,21,03,8.40
2016,11,14,21,04,8.40
2016,11,14,21,05,8.40
2016,11,14,21,06,8.40
2016,11,14,21,07,8.40
2016,11,14,21,08,8.40
2016,11,14,21,09,8.40
2016,11,14,21,10,8.40
2016,11,14,21,11,8.40
2016,11,14,21,12,8.40
2016,11,14,21,13,8.40